ONEWEB-0631 (55171 NORAD) Tracking and Keplerian Element Data

This shows tracking and keplerian element data for the satellite.

Feedback or suggestion? Click here.




ElementValue
Catalog55171
NameONEWEB-0631
Epoch Orbit1120
Epoch Day84.90414446
Epoch Year2023
RAAN253.6375
Inclination86.6249
Eccentricity0.0014263
Argument of Perigee334.1794
Mean Anonmoly25.8706
Mean Motion14.65912853
Decay Rate2.394E-05
L11 55171U 23004AH 23084.90414446 .00002394 00000+0 43334-3 0 9994
L22 55171 86.6249 253.6375 0014263 334.1794 25.8706 14.65912853 11200



Live tracking and technical data element details for ONEWEB-0631 (NORAD 55171). ONEWEB-0631 can be tracked NOW for your location showing map with azimuth and elevation plus other details from your city location.







IsCatalogInMostPopularTable: catalog: 55171, numindb: 11
Update: records affected: 1



GetName: 55171 ONEWEB-0631

Hit Count: updated at: Mon, 27 Mar 2023 06:23:43 GMT